Weather in Kotelnikovo

Russia / Kursk Oblast     51°17′53″N   36°18′41″E
temp.,
°C
wind,
m/s
gust,
m/s
humid.,
%
clouds,
%
prec.,
mm/h
press.,
hPa
HPBL,
m
24 may, tue
tue2400:00+6wsw22765 0.0 100915
03:00+5w34844 0.0 101059
06:00+6wnw35780 0.0 101099
09:00+12wnw46600 0.0 1010570
12:00+15wnw454434 0.0 10101910
15:00+15nw4550100 0.0 10102261
18:00+14nw466758 0.1 1011655
21:00+9n338420 0.3 101344
25 may, wed
wed2500:00+7w34745 0.0 101441
03:00+5w48855 0.0 1015142
06:00+7n228348 0.0 101564
09:00+11nnw2362100 0.0 1016551
12:00+15nnw45535 0.0 10161300
15:00+16nnw58525 0.0 10171780
18:00+16nnw36655 0.0 10161450
21:00+9ese33894 0.1 101844
26 may, thu
thu2600:00+8sse339023 0.0 101842
03:00+9wsw34869 0.0 101747
06:00+10sw2484100 0.0 1016109
09:00+14sw367899 0.0 1015308
12:00+17ssw61065100 0.1 10141357
15:00+12sw71491100 1.3 10141054
18:00+10sw81594100 2.2 1012884
21:00+10wsw6129762 2.3 1012360
27 may, fri
fri2700:00+10wsw512977 0.1 1012262
03:00+9wsw41396100 0.1 1012284
06:00+10wsw5149356 0.0 1011398
09:00+15w7127923 0.0 1011845
12:00+17w8106916 0.3 10121312
15:00+18w796554 0.8 10111508
18:00+17wsw587687 0.2 10101043
21:00+13ssw489021 0.3 1010149
28 may, sat
sat2800:00+12ssw5149046 0.0 1009310
03:00+15ssw8188356 0.1 1006552
06:00+13sw71595100 2.1 1006720
09:00+11wsw4994100 4.1 1008426
12:00+11wsw489380 0.2 1010537
15:00+16w6965100 0.3 10101432
18:00+14w4675100 0.0 1010659
21:00+11w3484100 0.1 101264